{"data":{"norad_id":47228,"intl_designator":"2020-091B","name":"GONETS-M 21","alt_names":[],"object_type":"PAYLOAD","status":"ACTIVE","operator":null,"country":"CIS","launch_date":"2020-12-03","launch_site_code":"PLMSC","launch_vehicle":null,"mission":null,"orbit_class":"UNKNOWN","rcs_meters":null,"size_class":null,"mass_kg":null,"dimensions":null,"purposes":[],"wikipedia_slug":null,"has_3d_model":false,"image_url":null,"decayed_at":null,"tle_current":{"epoch":"2026-09-20T22:22:33.808800Z","epoch_age_seconds":42085,"freshness":"FRESH","line1":"1 47228U 20091B   26263.93233575  .00000062  00000+0  38014-3 0  9997","line2":"2 47228  82.4928 241.5560 0014675 351.7497   8.3339 12.42889185262969","mean_motion":12.42889185,"eccentricity":0.0014675,"inclination_deg":82.4928,"raan_deg":241.556,"arg_perigee_deg":351.7497,"mean_anomaly_deg":8.3339,"bstar":0.00038014,"rev_number":26296,"period_min":115.85908199853,"perigee_km":1482.8263846552,"apogee_km":1505.9322200025,"semimajor_km":7872.5163023289,"source":"CELESTRAK","updated_at":"2026-09-21T09:00:07.474486Z"}}}